| time (UTC) | temp C | wind direction | speed KPH | gust KPH | rain 1hr cm | rain 24hr cm | rain mn cm | humidity % | barometer mb |
| 20260510020022 | 12 | 270 | 6.4 | 8.0 | 0.00 | 0.00 | 0.00 | 71 | 1017.1 |
| 20260510015021 | 12 | 289 | 6.4 | 9.7 | 0.00 | 0.00 | 0.00 | 71 | 1016.9 |
| 20260510014022 | 12 | 276 | 6.4 | 14.5 | 0.00 | 0.00 | 0.00 | 71 | 1016.7 |
| 20260510013021 | 12 | 295 | 8.0 | 16.1 | 0.00 | 0.00 | 0.00 | 70 | 1016.5 |
| 20260510012022 | 12 | 273 | 8.0 | 11.3 | 0.00 | 0.00 | 0.00 | 70 | 1016.4 |
| 20260510011021 | 12 | 287 | 4.8 | 8.0 | 0.00 | 0.00 | 0.00 | 70 | 1016.4 |
| 20260510010022 | 12 | 281 | 4.8 | 12.9 | 0.00 | 0.00 | 0.00 | 69 | 1016.2 |
| 20260510005021 | 12 | 284 | 3.2 | 9.7 | 0.00 | 0.00 | 0.00 | 68 | 1016.1 |
| 20260510004022 | 13 | 250 | 6.4 | 11.3 | 0.00 | 0.00 | 0.00 | 67 | 1015.9 |
| 20260510003021 | 12 | 202 | 3.2 | 8.0 | 0.00 | 0.00 | 0.00 | 68 | 1015.7 |
| 20260510002022 | 13 | 238 | 4.8 | 11.3 | 0.00 | 0.00 | 0.00 | 67 | 1015.5 |
| 20260510001021 | 13 | 251 | 6.4 | 11.3 | 0.00 | 0.00 | 0.00 | 66 | 1015.4 |
| 20260510000022 | 13 | 285 | 6.4 | 9.7 | 0.00 | 0.00 | 0.00 | 65 | 1015.4 |
| 20260509235021 | 13 | 270 | 4.8 | 9.7 | 0.00 | 0.00 | 0.00 | 65 | 1015.4 |
| 20260509234022 | 13 | 253 | 6.4 | 9.7 | 0.00 | 0.00 | 0.00 | 66 | 1015.4 |
| 20260509233021 | 13 | 260 | 8.0 | 14.5 | 0.00 | 0.00 | 0.00 | 64 | 1015.4 |
| 20260509232022 | 13 | 256 | 4.8 | 11.3 | 0.00 | 0.00 | 0.00 | 69 | 1015.3 |
| 20260509231021 | 14 | 242 | 6.4 | 11.3 | 0.00 | 0.00 | 0.00 | 68 | 1015.4 |
| 20260509230022 | 14 | 244 | 6.4 | 9.7 | 0.00 | 0.00 | 0.00 | 67 | 1015.2 |
| 20260509225021 | 14 | 262 | 6.4 | 8.0 | 0.00 | 0.00 | 0.00 | 68 | 1015.3 |
| 20260509224022 | 15 | 255 | 6.4 | 11.3 | 0.00 | 0.00 | 0.00 | 66 | 1015.3 |
| 20260509223021 | 15 | 239 | 6.4 | 8.0 | 0.00 | 0.00 | 0.00 | 65 | 1015.3 |
| 20260509222021 | 14 | 274 | 4.8 | 9.7 | 0.00 | 0.00 | 0.00 | 67 | 1015.2 |
| 20260509221021 | 13 | 224 | 4.8 | 9.7 | 0.00 | 0.00 | 0.00 | 68 | 1015.2 |
| 20260509220022 | 13 | 242 | 4.8 | 12.9 | 0.00 | 0.00 | 0.00 | 68 | 1015.2 |
| 20260509215021 | 13 | 228 | 6.4 | 11.3 | 0.00 | 0.00 | 0.00 | 68 | 1015.3 |
| 20260509214021 | 13 | 224 | 6.4 | 9.7 | 0.00 | 0.00 | 0.00 | 67 | 1015.2 |
| 20260509213022 | 13 | 213 | 4.8 | 9.7 | 0.00 | 0.00 | 0.00 | 66 | 1015.1 |
| 20260509212021 | 13 | 249 | 4.8 | 11.3 | 0.00 | 0.00 | 0.00 | 66 | 1015.1 |
| 20260509211024 | 13 | 246 | 4.8 | 14.5 | 0.00 | 0.00 | 0.00 | 67 | 1015.1 |
| 20260509210023 | 14 | 241 | 6.4 | 14.5 | 0.00 | 0.00 | 0.00 | 65 | 1014.9 |
| 20260509205022 | 15 | 221 | 8.0 | 16.1 | 0.00 | 0.00 | 0.00 | 62 | 1014.7 |
| 20260509204021 | 13 | 251 | 4.8 | 9.7 | 0.00 | 0.00 | 0.00 | 67 | 1014.8 |
| 20260509203021 | 13 | 204 | 4.8 | 12.9 | 0.00 | 0.00 | 0.00 | 68 | 1014.7 |
| 20260509202024 | 13 | 246 | 8.0 | 12.9 | 0.00 | 0.00 | 0.00 | 67 | 1014.6 |
| 20260509201023 | 15 | 232 | 6.4 | 11.3 | 0.00 | 0.00 | 0.00 | 62 | 1014.6 |
| 20260509200022 | 13 | 220 | 6.4 | 11.3 | 0.00 | 0.00 | 0.00 | 69 | 1014.6 |
| 20260509195021 | 13 | 248 | 4.8 | 9.7 | 0.00 | 0.00 | 0.00 | 70 | 1014.7 |
| 20260509194022 | 14 | 228 | 8.0 | 12.9 | 0.00 | 0.00 | 0.00 | 67 | 1014.9 |
| 20260509193022 | 15 | 228 | 6.4 | 14.5 | 0.00 | 0.00 | 0.00 | 65 | 1015.0 |
| 20260509192021 | 16 | 254 | 4.8 | 11.3 | 0.00 | 0.00 | 0.00 | 62 | 1015.0 |
| 20260509191022 | 15 | 211 | 6.4 | 12.9 | 0.00 | 0.00 | 0.00 | 66 | 1015.1 |
| 20260509190021 | 14 | 271 | 6.4 | 12.9 | 0.00 | 0.00 | 0.00 | 66 | 1015.1 |
| 20260509185022 | 14 | 237 | 6.4 | 11.3 | 0.00 | 0.00 | 0.00 | 67 | 1015.2 |
| 20260509184024 | 14 | 224 | 4.8 | 11.3 | 0.00 | 0.00 | 0.00 | 68 | 1015.3 |
| 20260509183022 | 13 | 241 | 6.4 | 11.3 | 0.00 | 0.00 | 0.00 | 67 | 1015.3 |
| 20260509182024 | 14 | 218 | 6.4 | 12.9 | 0.00 | 0.00 | 0.00 | 68 | 1015.4 |
| 20260509181024 | 13 | 228 | 4.8 | 8.0 | 0.00 | 0.00 | 0.00 | 71 | 1015.5 |
| 20260509180021 | 12 | 268 | 4.8 | 11.3 | 0.00 | 0.00 | 0.00 | 76 | 1015.8 |
| 20260509175024 | 12 | 237 | 6.4 | 8.0 | 0.00 | 0.00 | 0.00 | 75 | 1015.9 |
| 20260509174021 | 13 | 283 | 4.8 | 8.0 | 0.00 | 0.00 | 0.00 | 70 | 1016.0 |
| 20260509173021 | 13 | 192 | 1.6 | 6.4 | 0.00 | 0.00 | 0.00 | 63 | 1016.0 |
| 20260509172022 | 13 | 182 | 3.2 | 9.7 | 0.00 | 0.00 | 0.00 | 62 | 1016.0 |
| 20260509171022 | 14 | 47 | 3.2 | 9.7 | 0.00 | 0.00 | 0.00 | 64 | 1016.2 |
| 20260509170021 | 13 | 297 | 6.4 | 11.3 | 0.00 | 0.00 | 0.00 | 63 | 1016.2 |
| 20260509165021 | 14 | 271 | 9.7 | 14.5 | 0.00 | 0.00 | 0.00 | 60 | 1016.0 |
| 20260509164022 | 15 | 242 | 4.8 | 8.0 | 0.00 | 0.00 | 0.00 | 59 | 1016.0 |
| 20260509163021 | 13 | 268 | 3.2 | 8.0 | 0.00 | 0.00 | 0.00 | 69 | 1015.9 |
| 20260509162026 | 13 | 230 | 3.2 | 6.4 | 0.00 | 0.00 | 0.00 | 69 | 1015.9 |
| 20260509161021 | 12 | 233 | 4.8 | 8.0 | 0.00 | 0.00 | 0.00 | 71 | 1015.9 |
| 20260509160022 | 12 | 226 | 4.8 | 8.0 | 0.00 | 0.00 | 0.00 | 71 | 1015.9 |
| 20260509155022 | 12 | 257 | 4.8 | 6.4 | 0.00 | 0.00 | 0.00 | 67 | 1016.0 |
| 20260509154022 | 14 | 233 | 4.8 | 6.4 | 0.00 | 0.00 | 0.00 | 63 | 1016.0 |
| 20260509153021 | 13 | 238 | 1.6 | 6.4 | 0.00 | 0.00 | 0.00 | 60 | 1015.8 |
| 20260509152021 | 14 | 182 | 1.6 | 9.7 | 0.00 | 0.00 | 0.00 | 60 | 1015.6 |
| 20260509151024 | 13 | 295 | 4.8 | 8.0 | 0.00 | 0.00 | 0.00 | 60 | 1015.8 |
| 20260509150021 | 13 | 234 | 3.2 | 16.1 | 0.00 | 0.00 | 0.00 | 60 | 1015.9 |
| 20260509145022 | 13 | 289 | 3.2 | 11.3 | 0.00 | 0.00 | 0.00 | 57 | 1015.8 |
| 20260509144022 | 13 | 292 | 6.4 | 12.9 | 0.00 | 0.00 | 0.00 | 59 | 1015.5 |
| 20260509143022 | 12 | 296 | 8.0 | 14.5 | 0.00 | 0.00 | 0.00 | 68 | 1015.7 |
| 20260509142022 | 11 | 268 | 8.0 | 16.1 | 0.00 | 0.00 | 0.00 | 68 | 1015.8 |
| 20260509141022 | 11 | 290 | 8.0 | 17.7 | 0.00 | 0.00 | 0.00 | 72 | 1016.0 |
| 20260509140022 | 11 | 255 | 8.0 | 16.1 | 0.00 | 0.00 | 0.00 | 73 | 1016.2 |
| 20260509135023 | 10 | 262 | 9.7 | 14.5 | 0.00 | 0.00 | 0.00 | 74 | 1016.3 |
| 20260509134021 | 10 | 271 | 8.0 | 16.1 | 0.00 | 0.00 | 0.00 | 75 | 1016.4 |
| 20260509133022 | 10 | 274 | 9.7 | 17.7 | 0.00 | 0.00 | 0.00 | 76 | 1016.4 |
| 20260509132021 | 10 | 262 | 9.7 | 14.5 | 0.00 | 0.00 | 0.00 | 74 | 1016.3 |
| 20260509131024 | 10 | 273 | 8.0 | 12.9 | 0.00 | 0.00 | 0.00 | 75 | 1016.2 |
| 20260509130021 | 10 | 264 | 11.3 | 19.3 | 0.00 | 0.00 | 0.00 | 75 | 1016.1 |
| 20260509125022 | 10 | 264 | 9.7 | 16.1 | 0.00 | 0.00 | 0.00 | 76 | 1016.1 |
| 20260509124021 | 10 | 276 | 9.7 | 16.1 | 0.00 | 0.00 | 0.00 | 78 | 1016.2 |
| 20260509123022 | 9 | 257 | 9.7 | 16.1 | 0.00 | 0.00 | 0.00 | 78 | 1016.2 |
| 20260509122024 | 9 | 259 | 11.3 | 16.1 | 0.00 | 0.00 | 0.00 | 77 | 1016.2 |
| 20260509121021 | 9 | 265 | 9.7 | 16.1 | 0.00 | 0.00 | 0.00 | 77 | 1016.1 |
| 20260509120022 | 9 | 278 | 12.9 | 19.3 | 0.00 | 0.00 | 0.00 | 76 | 1016.0 |
| 20260509115021 | 9 | 264 | 11.3 | 19.3 | 0.00 | 0.00 | 0.00 | 78 | 1016.1 |
| 20260509114021 | 8 | 272 | 11.3 | 20.9 | 0.00 | 0.00 | 0.00 | 78 | 1016.1 |
| 20260509113023 | 8 | 281 | 11.3 | 19.3 | 0.00 | 0.00 | 0.00 | 77 | 1016.1 |
| 20260509112022 | 8 | 258 | 11.3 | 19.3 | 0.00 | 0.00 | 0.00 | 77 | 1016.0 |
| 20260509111021 | 8 | 270 | 12.9 | 22.5 | 0.00 | 0.00 | 0.00 | 77 | 1015.9 |
| 20260509110023 | 8 | 269 | 14.5 | 20.9 | 0.00 | 0.00 | 0.00 | 77 | 1016.0 |
| 20260509105023 | 8 | 250 | 11.3 | 20.9 | 0.00 | 0.00 | 0.00 | 77 | 1016.0 |
| 20260509104022 | 8 | 266 | 12.9 | 22.5 | 0.00 | 0.00 | 0.00 | 77 | 1016.0 |
| 20260509103021 | 8 | 260 | 12.9 | 20.9 | 0.00 | 0.00 | 0.00 | 77 | 1016.0 |
| 20260509102022 | 8 | 268 | 12.9 | 20.9 | 0.00 | 0.00 | 0.00 | 77 | 1016.0 |
| 20260509101022 | 8 | 256 | 12.9 | 20.9 | 0.00 | 0.00 | 0.00 | 76 | 1016.1 |
| 20260509100029 | 8 | 261 | 12.9 | 20.9 | 0.00 | 0.00 | 0.00 | 76 | 1015.9 |
| 20260509095022 | 8 | 272 | 14.5 | 20.9 | 0.00 | 0.00 | 0.00 | 76 | 1016.0 |
| 20260509094025 | 8 | 260 | 12.9 | 17.7 | 0.00 | 0.00 | 0.00 | 74 | 1016.0 |
| 20260509093024 | 8 | 244 | 12.9 | 27.4 | 0.00 | 0.00 | 0.00 | 74 | 1016.0 |
| 20260509092021 | 8 | 273 | 14.5 | 24.1 | 0.00 | 0.00 | 0.00 | 73 | 1016.2 |
| 20260509091022 | 9 | 243 | 11.3 | 25.7 | 0.00 | 0.00 | 0.00 | 72 | 1016.1 |
| 20260509090022 | 9 | 258 | 14.5 | 24.1 | 0.00 | 0.00 | 0.00 | 71 | 1016.1 |
| 20260509085021 | 9 | 261 | 11.3 | 20.9 | 0.00 | 0.00 | 0.00 | 71 | 1016.3 |
| 20260509084022 | 9 | 222 | 11.3 | 20.9 | 0.00 | 0.00 | 0.00 | 69 | 1016.3 |
| 20260509083021 | 9 | 269 | 12.9 | 27.4 | 0.00 | 0.00 | 0.00 | 68 | 1016.3 |
| 20260509082024 | 9 | 244 | 16.1 | 22.5 | 0.00 | 0.00 | 0.00 | 67 | 1016.5 |
| 20260509081024 | 8 | 272 | 11.3 | 20.9 | 0.00 | 0.00 | 0.00 | 65 | 1016.3 |
| 20260509080021 | 8 | 287 | 12.9 | 20.9 | 0.00 | 0.00 | 0.00 | 63 | 1016.4 |
| 20260509075022 | 8 | 249 | 9.7 | 20.9 | 0.00 | 0.00 | 0.00 | 62 | 1016.4 |
| 20260509074021 | 9 | 269 | 11.3 | 24.1 | 0.00 | 0.00 | 0.00 | 61 | 1016.6 |
| 20260509073024 | 9 | 257 | 12.9 | 25.7 | 0.00 | 0.00 | 0.00 | 60 | 1016.7 |
| 20260509072021 | 9 | 243 | 9.7 | 20.9 | 0.00 | 0.00 | 0.00 | 60 | 1016.6 |
| 20260509071022 | 9 | 263 | 12.9 | 20.9 | 0.00 | 0.00 | 0.00 | 58 | 1016.7 |
| 20260509070021 | 9 | 268 | 14.5 | 25.7 | 0.00 | 0.00 | 0.00 | 56 | 1016.6 |
| 20260509065021 | 9 | 246 | 16.1 | 22.5 | 0.00 | 0.00 | 0.00 | 56 | 1016.8 |
| 20260509064022 | 9 | 262 | 12.9 | 27.4 | 0.00 | 0.00 | 0.00 | 55 | 1016.9 |
| 20260509063023 | 9 | 221 | 12.9 | 24.1 | 0.00 | 0.00 | 0.00 | 53 | 1016.9 |
| 20260509062022 | 9 | 257 | 11.3 | 24.1 | 0.00 | 0.00 | 0.00 | 53 | 1017.1 |
| 20260509061021 | 10 | 266 | 14.5 | 24.1 | 0.00 | 0.00 | 0.00 | 51 | 1017.0 |
| 20260509060021 | 9 | 259 | 17.7 | 27.4 | 0.00 | 0.00 | 0.00 | 51 | 1017.1 |
| 20260509055022 | 9 | 249 | 14.5 | 24.1 | 0.00 | 0.00 | 0.00 | 51 | 1017.2 |
| 20260509054021 | 9 | 258 | 12.9 | 20.9 | 0.00 | 0.00 | 0.00 | 51 | 1017.4 |
| 20260509053024 | 9 | 269 | 12.9 | 22.5 | 0.00 | 0.00 | 0.00 | 51 | 1017.5 |
| 20260509052021 | 9 | 257 | 11.3 | 19.3 | 0.00 | 0.00 | 0.00 | 51 | 1017.5 |
| 20260509051022 | 9 | 268 | 12.9 | 22.5 | 0.00 | 0.00 | 0.00 | 51 | 1017.4 |
| 20260509050022 | 9 | 251 | 12.9 | 24.1 | 0.00 | 0.00 | 0.00 | 51 | 1017.4 |
| 20260509045021 | 9 | 225 | 16.1 | 25.7 | 0.00 | 0.00 | 0.00 | 52 | 1017.4 |
| 20260509044022 | 9 | 240 | 12.9 | 17.7 | 0.00 | 0.00 | 0.00 | 52 | 1017.5 |
| 20260509043022 | 9 | 254 | 11.3 | 20.9 | 0.00 | 0.00 | 0.00 | 53 | 1017.4 |
| 20260509042024 | 9 | 250 | 11.3 | 20.9 | 0.00 | 0.00 | 0.00 | 53 | 1017.5 |
| 20260509041022 | 9 | 259 | 11.3 | 19.3 | 0.00 | 0.00 | 0.00 | 53 | 1017.5 |
| 20260509040021 | 9 | 249 | 11.3 | 16.1 | 0.00 | 0.00 | 0.00 | 54 | 1017.6 |
| 20260509035024 | 9 | 267 | 9.7 | 20.9 | 0.00 | 0.00 | 0.00 | 54 | 1017.7 |
| 20260509034022 | 9 | 242 | 8.0 | 20.9 | 0.00 | 0.00 | 0.00 | 55 | 1017.7 |
| 20260509033021 | 9 | 238 | 11.3 | 19.3 | 0.00 | 0.00 | 0.00 | 55 | 1017.8 |
| 20260509032022 | 9 | 269 | 8.0 | 20.9 | 0.00 | 0.00 | 0.00 | 57 | 1017.7 |
| 20260509031023 | 9 | 255 | 9.7 | 16.1 | 0.00 | 0.00 | 0.00 | 56 | 1018.0 |
| 20260509030022 | 9 | 245 | 11.3 | 17.7 | 0.00 | 0.00 | 0.00 | 55 | 1018.0 |
| 20260509025021 | 9 | 236 | 9.7 | 20.9 | 0.00 | 0.00 | 0.00 | 55 | 1017.9 |
| 20260509024022 | 9 | 243 | 9.7 | 20.9 | 0.00 | 0.00 | 0.00 | 56 | 1018.1 |
| 20260509023021 | 9 | 239 | 9.7 | 16.1 | 0.00 | 0.00 | 0.00 | 56 | 1018.1 |
| 20260509022022 | 10 | 241 | 14.5 | 19.3 | 0.00 | 0.00 | 0.00 | 55 | 1018.1 |
| 20260509021026 | 10 | 233 | 9.7 | 22.5 | 0.00 | 0.00 | 0.00 | 56 | 1018.1 |